Home   Weather   Rostock   Past weeks

Flag for Germany Past Weather in Rostock, Mecklenburg-Western Pomerania, Germany — Yesterday and Last 2 Weeks

Now
70 °F

Passing clouds.


Feels Like: 70 °F
Forecast: 56 / 74 °F
Wind: 10 mph from Northwest

Location: Laage

Current Time: Aug 30, 2016 at 7:16:50 PM

Latest Report: Aug 30, 2016 at 6:20 PM


Visibility: N/A

Pressure: 30.24 "Hg

Humidity: 53%

Dew Point: 52 °F

Location of RostockLocation

Past Weather in Rostock — Graph

°F

Rostock Temperature Yesterday

Maximum temperature yesterday: 66 °F (at 12:20 AM)
Minimum temperature yesterday: 59 °F (at 9:20 PM)
Average temperature yesterday: 63 °F

High & Low Weather Summary for the Past Weeks

 TemperatureHumidityPressure
High91 °F (Aug 26, 3:20 PM)100% (Aug 16, 3:20 AM)30.33 "Hg (Aug 16, 3:20 AM)
Low45 °F (Aug 17, 6:20 AM)29% (Aug 25, 4:55 PM)29.80 "Hg (Aug 18, 7:46 AM)
Average65 °F74%30.05 "Hg
* Reported Aug 15 5:20 PM — Aug 30 5:20 PM, Rostock, Weather by CustomWeather, © 2016

Note: Actual official high and low records may vary slightly from our data, if they occured in-between our weather recording intervals... More about our weather records

Advertising

Rostock Weather History for the Previous 24 Hours

Scroll right to see more
 ConditionsComfort  
Time TempWeatherWind HumidityBarometerVisibility
5:20 PM
Tue, Aug 30
72 °FPassing clouds.12 mph50%30.24 "HgN/A
4:20 PM70 °FScattered clouds.14 mph50%30.24 "HgN/A
3:20 PM70 °FScattered clouds.10 mph50%30.27 "HgN/A
2:20 PM70 °FScattered clouds.13 mph53%30.27 "HgN/A
1:20 PM66 °FScattered clouds.12 mph60%30.27 "HgN/A
12:20 PM66 °FPartly sunny.13 mph60%30.27 "HgN/A
11:20 AM66 °FPartly sunny.13 mph64%30.27 "HgN/A
10:20 AM64 °FPartly sunny.12 mph73%30.24 "HgN/A
9:20 AM61 °FPassing clouds.13 mph77%30.24 "HgN/A
8:20 AM57 °FPassing clouds.9 mph88%30.21 "HgN/A
7:20 AM54 °FPassing clouds.6 mph94%30.21 "HgN/A
6:20 AM54 °FPassing clouds.7 mph88%30.18 "HgN/A
5:20 AM54 °FPassing clouds.8 mph94%30.18 "HgN/A
4:20 AM54 °FPassing clouds.8 mph88%30.18 "HgN/A
3:20 AM54 °FPassing clouds.7 mph88%30.15 "HgN/A
2:20 AM55 °FCool.8 mph88%30.15 "HgN/A
1:20 AM57 °FCool.9 mph77%30.15 "HgN/A
12:20 AM59 °FPassing clouds.13 mph72%30.12 "HgN/A
11:20 PM
Mon, Aug 29
59 °FPassing clouds.10 mph72%30.12 "HgN/A
10:20 PM59 °FCool.13 mph72%30.09 "HgN/A
9:20 PM59 °FPassing clouds.12 mph72%30.07 "HgN/A
8:20 PM61 °FPassing clouds.10 mph68%30.07 "HgN/A
7:20 PM64 °FPassing clouds.14 mph60%30.04 "HgN/A
Weather by CustomWeather, © 2016

See weather overviewHow to use our weather pages